Location: Newark
(39.9333°N, 8.7667°E)
Time: 10:10:15
(UTC+00:00)

LightSail 2 - Pass Details

Date: 09 December 2019
Orbit: 703 x 720 km, 24.0° (Epoch: 19 January)

Event Time Altitude Azimuth Distance (km) Brightness Sun altitude
Rises 16:57:27 0° 240° (WSW) 3,097 10.4 -10.8°
Reaches altitude 10° 17:01:59 10° 203° (SSW) 2,170 8.3 -11.7°
Maximum altitude 17:03:10 11° 190° (S) 2,117 8.0 -11.9°
Drops below altitude 10° 17:04:22 10° 176° (S) 2,166 7.9 -12.1°
Sets 17:08:53 0° 140° (SE) 3,078 8.2 -12.9°
